Weather History for Hulett, WY

Change the Weather History Date:

Saturday, August 3, 2013

  Actual Average (KEFC) Record (KEFC)
Temperature  
Mean Temperature 66 °F -  
Max Temperature 78 °F 86 °F 102 °F (1961)
Min Temperature 55 °F 54 °F 42 °F (1978)
Cooling Degree Days 2    
Growing Degree Days 16 (Base 50)    
Moisture  
Dew Point 59 °F    
Average Humidity 77    
Maximum Humidity 100    
Minimum Humidity 50    
Precipitation  
Precipitation 0.00 in - - ()
Sea Level Pressure  
Sea Level Pressure 30.14 in    
Wind  
Wind Speed 4 mph (ENE)    
Max Wind Speed 31 mph    
Max Gust Speed 40 mph    
Visibility 8 miles    
Events Fog , Rain , Thunderstorm    
Averages and records for this station are not official NWS values.
T = Trace of Precipitation, MM = Missing Value Source: NWS Daily Summary

Daily Weather History Graph

Daily Weather History Graph

Search for Another Location

Airport:

Trip Planner

Search our weather history database for the weather conditions in past years. The results will help you decide how hot, cold, wet, or windy it might be!

Date:

Astronomy

Aug. 03, 2013 Rise Set
Actual Time 5:47 AM MDT 8:20 PM MDT
Civil Twilight 5:13 AM MDT 8:53 PM MDT
Nautical Twilight 4:32 AM MDT 9:35 PM MDT
Astronomical Twilight 3:44 AM MDT 10:22 PM MDT
Moon 2:56 AM MDT (8/3) 6:06 PM MDT (8/3)
Length of Visible Light 15h 39m
Length of Day
14h 33m
Waning Crescent, 9% of the Moon is Illuminated
Aug 3
Waning Crescent
Aug 6
New
Aug 14
First Quarter
Aug 20
Full
Aug 28
Last Quarter

Hourly Weather History & Observations

Time (MDT) Temp. Dew Point Humidity Pressure Visibility Wind Dir Wind Speed Gust Speed Precip Events Conditions
12:15 AM 59.0 °F 55.4 °F 88% 30.13 in 10.0 mi North - - N/A   Clear
12:35 AM 59.0 °F 55.4 °F 88% 30.13 in 10.0 mi North - - N/A   Clear
12:55 AM 57.2 °F 55.4 °F 94% 30.14 in 10.0 mi Calm Calm - N/A   Scattered Clouds
1:15 AM 55.4 °F 55.4 °F 100% 30.13 in 4.0 mi Calm Calm - N/A   Scattered Clouds
1:35 AM 57.2 °F 55.4 °F 94% 30.12 in 7.0 mi NE 3.5 mph - N/A   Clear
1:55 AM 55.4 °F 55.4 °F 100% 30.12 in 5.0 mi NE 3.5 mph - N/A   Mostly Cloudy
2:15 AM 57.2 °F 55.4 °F 94% 30.12 in 7.0 mi North - - N/A   Mostly Cloudy
2:35 AM 57.2 °F 55.4 °F 94% 30.13 in 4.0 mi Calm Calm - N/A   Mostly Cloudy
2:55 AM 57.2 °F 55.4 °F 94% 30.13 in 7.0 mi Calm Calm - N/A   Overcast
3:15 AM 57.2 °F 55.4 °F 94% 30.13 in 4.0 mi Calm Calm - N/A   Overcast
3:35 AM 57.2 °F 55.4 °F 94% 30.14 in 2.5 mi NNW 3.5 mph - N/A Thunderstorm Overcast
3:55 AM 57.2 °F 55.4 °F 94% 30.14 in 0.2 mi Calm Calm - N/A Fog Fog
4:15 AM 57.2 °F 55.4 °F 94% 30.15 in 0.2 mi North 3.5 mph - N/A Fog Fog
4:35 AM 57.2 °F 55.4 °F 94% 30.14 in 1.0 mi North - - N/A   Overcast
4:55 AM 57.2 °F 55.4 °F 94% 30.15 in 5.0 mi Calm Calm - N/A   Mostly Cloudy
5:15 AM 55.4 °F 55.4 °F 100% 30.15 in 0.5 mi NNW 3.5 mph - N/A Fog Fog
5:35 AM 57.2 °F 55.4 °F 94% 30.15 in 0.2 mi NE 3.5 mph - N/A Fog Fog
5:55 AM 57.2 °F 55.4 °F 94% 30.15 in 0.2 mi North 3.5 mph - N/A Fog Fog
6:15 AM 57.2 °F 55.4 °F 94% 30.16 in 0.2 mi NNE 3.5 mph - N/A Fog Fog
6:35 AM 57.2 °F 55.4 °F 94% 30.15 in 0.2 mi East 3.5 mph - N/A Fog Fog
6:55 AM 57.2 °F 55.4 °F 94% 30.15 in 0.2 mi Calm Calm - N/A Fog Fog
7:15 AM 57.2 °F 55.4 °F 94% 30.16 in 0.2 mi Calm Calm - N/A Fog Fog
7:35 AM 59.0 °F 57.2 °F 94% 30.16 in 1.0 mi Calm Calm - N/A   Overcast
7:55 AM 59.0 °F 57.2 °F 94% 30.16 in 4.0 mi North 3.5 mph - N/A   Overcast
8:15 AM 59.0 °F 59.0 °F 100% 30.17 in 10.0 mi Calm Calm - N/A   Scattered Clouds
8:35 AM 60.8 °F 59.0 °F 94% 30.17 in 10.0 mi North 3.5 mph - N/A   Clear
8:55 AM 64.4 °F 59.0 °F 83% 30.17 in 10.0 mi NNW 3.5 mph - N/A   Clear
9:15 AM 64.4 °F 60.8 °F 88% 30.19 in 10.0 mi North - - N/A   Clear
9:35 AM 64.4 °F 59.0 °F 83% 30.19 in 10.0 mi NW 3.5 mph - N/A   Clear
9:55 AM 66.2 °F 59.0 °F 78% 30.19 in 10.0 mi NW 4.6 mph - N/A   Clear
10:15 AM 68.0 °F 59.0 °F 73% 30.19 in 10.0 mi North - - N/A   Clear
10:35 AM 68.0 °F 59.0 °F 73% 30.20 in 10.0 mi West 6.9 mph - N/A   Clear
10:55 AM 69.8 °F 60.8 °F 73% 30.20 in 10.0 mi WSW 5.8 mph - N/A   Clear
11:15 AM 69.8 °F 60.8 °F 73% 30.20 in 10.0 mi WSW 3.5 mph - N/A   Clear
11:35 AM 71.6 °F 60.8 °F 69% 30.20 in 10.0 mi WSW 3.5 mph - N/A   Scattered Clouds
11:55 AM 73.4 °F 59.0 °F 61% 30.20 in 10.0 mi WSW 6.9 mph - N/A   Mostly Cloudy
12:15 PM 75.2 °F 59.0 °F 57% 30.19 in 10.0 mi WSW 6.9 mph - N/A   Mostly Cloudy
12:35 PM 77.0 °F 57.2 °F 50% 30.19 in 10.0 mi South 8.1 mph - N/A   Mostly Cloudy
12:55 PM 77.0 °F 59.0 °F 54% 30.18 in 10.0 mi South 5.8 mph - N/A   Mostly Cloudy
1:15 PM 75.2 °F 59.0 °F 57% 30.18 in 10.0 mi WSW 4.6 mph - N/A   Mostly Cloudy
1:35 PM 73.4 °F 62.6 °F 69% 30.17 in 10.0 mi North - - N/A   Overcast
1:55 PM 73.4 °F 62.6 °F 69% 30.17 in 10.0 mi North - - N/A   Overcast
2:15 PM 73.4 °F 60.8 °F 65% 30.16 in 10.0 mi North - - N/A   Overcast
2:35 PM 73.4 °F 60.8 °F 65% 30.16 in 10.0 mi ESE 12.7 mph - N/A   Mostly Cloudy
2:55 PM 77.0 °F 60.8 °F 57% 30.16 in 10.0 mi East 11.5 mph - N/A   Mostly Cloudy
3:15 PM 77.0 °F 60.8 °F 57% 30.15 in 10.0 mi ESE 11.5 mph - N/A   Mostly Cloudy
3:35 PM 78.8 °F 60.8 °F 54% 30.15 in 10.0 mi ESE 11.5 mph - N/A   Scattered Clouds
3:55 PM 77.0 °F 62.6 °F 61% 30.14 in 10.0 mi East 12.7 mph 18.4 mph N/A   Clear
4:15 PM 78.8 °F 60.8 °F 54% 30.13 in 10.0 mi North - - N/A   Clear
4:35 PM 78.8 °F 60.8 °F 54% 30.12 in 10.0 mi North - - N/A   Clear
4:55 PM 77.0 °F 60.8 °F 57% 30.12 in 10.0 mi North - - N/A   Scattered Clouds
5:15 PM 78.8 °F 60.8 °F 54% 30.11 in 10.0 mi East 10.4 mph - N/A   Scattered Clouds
5:35 PM 77.0 °F 60.8 °F 57% 30.11 in 10.0 mi North - - N/A   Scattered Clouds
5:55 PM 77.0 °F 60.8 °F 57% 30.10 in 10.0 mi East 10.4 mph - N/A   Clear
6:15 PM 77.0 °F 59.0 °F 54% 30.08 in 10.0 mi East 9.2 mph - N/A   Clear
6:35 PM 77.0 °F 60.8 °F 57% 30.08 in 10.0 mi East 10.4 mph - N/A   Scattered Clouds
6:55 PM 75.2 °F 59.0 °F 57% 30.08 in 10.0 mi North - - N/A   Mostly Cloudy
7:15 PM 73.4 °F 60.8 °F 65% 30.09 in 10.0 mi North - - N/A   Mostly Cloudy
7:35 PM 73.4 °F 60.8 °F 65% 30.09 in 10.0 mi North - - N/A   Overcast
7:55 PM 73.4 °F 60.8 °F 65% 30.09 in 10.0 mi North - - N/A   Overcast
8:15 PM 73.4 °F 59.0 °F 61% 30.08 in 10.0 mi North - - N/A   Mostly Cloudy
8:35 PM 71.6 °F 60.8 °F 69% 30.05 in 10.0 mi ESE 11.5 mph - N/A Rain Light Rain
8:55 PM 71.6 °F 59.0 °F 64% 30.08 in 10.0 mi North - - N/A   Scattered Clouds
9:15 PM 71.6 °F 59.0 °F 64% 30.11 in 10.0 mi North - - N/A   Mostly Cloudy
9:35 PM 71.6 °F 60.8 °F 69% 30.12 in 10.0 mi North - - N/A Thunderstorm Overcast
9:55 PM 71.6 °F 62.6 °F 73% 30.14 in 10.0 mi North - - N/A Rain , Thunderstorm Light Thunderstorms and Rain
10:15 PM 69.8 °F 62.6 °F 78% 30.17 in 7.0 mi NNE 6.9 mph - N/A Rain , Thunderstorm Thunderstorms and Rain
10:35 PM 66.2 °F 62.6 °F 88% 30.14 in 7.0 mi East 10.4 mph - N/A Rain , Thunderstorm Thunderstorms and Rain
10:55 PM 64.4 °F 62.6 °F 94% 30.14 in 10.0 mi East 6.9 mph - N/A Rain Light Rain
11:15 PM 64.4 °F 62.6 °F 94% 30.15 in 10.0 mi SE 10.4 mph - N/A Rain , Thunderstorm Light Thunderstorms and Rain
11:35 PM 64.4 °F 62.6 °F 94% 30.17 in 5.0 mi SSE 11.5 mph - N/A Rain , Thunderstorm Thunderstorms and Rain
11:55 PM 64.4 °F 60.8 °F 88% 30.08 in 10.0 mi SE 31.1 mph 40.3 mph N/A Rain Light Rain